Weather History for WAAA - October, 2012

Change the Weather History Date:

Saturday, October 27, 2012

  Actual Average Record
Temperature  
Mean Temperature 84 °F -  
Max Temperature 95 °F - - ()
Min Temperature 74 °F - - ()
Cooling Degree Days 20    
Growing Degree Days 34 (Base 50)    
Moisture  
Dew Point 75 °F    
Average Humidity 84    
Maximum Humidity 100    
Minimum Humidity 49    
Precipitation  
Precipitation 0.24 in - - ()
Sea Level Pressure  
Sea Level Pressure 29.77 in    
Wind  
Wind Speed 4 mph ()    
Max Wind Speed 15 mph    
Max Gust Speed 28 mph    
Visibility 5.3 miles    
Events Rain , Thunderstorm    
T = Trace of Precipitation, MM = Missing Value Source: Averaged Metar Reports

Daily Weather History Graph

Daily Weather History Graph

Search for Another Location

Airport or City:

Trip Planner

Search our weather history database for the weather conditions in past years. The results will help you decide how hot, cold, wet, or windy it might be!

Date:

Astronomy

Oct. 27, 2012 Rise Set
Actual Time 5:37 AM WITA 5:53 PM WITA
Civil Twilight 5:16 AM WITA 6:15 PM WITA
Nautical Twilight 4:51 AM WITA 6:39 PM WITA
Astronomical Twilight 4:26 AM WITA 7:04 PM WITA
Moon 3:57 PM WITA (10/27) 3:30 AM WITA (10/27)
Length of Visible Light 12h 58m
Length of Day
12h 16m
Waxing Gibbous, 93% of the Moon is Illuminated
Oct 27
Waxing Gibbous
Oct 30
Full
Nov 7
Last Quarter
Nov 14
New
Nov 20
First Quarter

Hourly Weather History & Observations

Time (WITA) Temp. Heat Index Dew Point Humidity Pressure Visibility Wind Dir Wind Speed Gust Speed Precip Events Conditions
12:00 AM 77.0 °F - 73.4 °F 89% 29.74 in 5.0 mi Variable 1.2 mph - N/A   Partly Cloudy
12:30 AM 77.0 °F - 73.4 °F 89% 29.74 in 5.0 mi SE 1.2 mph - N/A   Partly Cloudy
1:00 AM 77.0 °F - 73.4 °F 89% 29.74 in 5.0 mi SE 2.3 mph - N/A   Partly Cloudy
1:30 AM 77.0 °F - 73.4 °F 89% 29.74 in 5.0 mi SE 2.3 mph - N/A   Partly Cloudy
2:00 AM 75 °F - 75 °F 100% 29.75 in 5 mi SE 3.5 mph - -   Scattered Clouds
2:00 AM 75.2 °F - 73.4 °F 94% 29.74 in 5.0 mi SE 3.5 mph - N/A   Partly Cloudy
2:30 AM 75.2 °F - 71.6 °F 89% 29.74 in 5.0 mi ESE 4.6 mph - N/A   Partly Cloudy
3:00 AM 75.2 °F - 71.6 °F 89% 29.74 in 5.0 mi ESE 4.6 mph - N/A   Partly Cloudy
3:30 AM 75.2 °F - 73.4 °F 94% 29.74 in 5.0 mi Variable 2.3 mph - N/A   Partly Cloudy
4:00 AM 75.2 °F - 71.6 °F 89% 29.74 in 5.0 mi East 2.3 mph - N/A   Partly Cloudy
4:30 AM 75.2 °F - 73.4 °F 94% 29.74 in 5.0 mi SE 3.5 mph - N/A   Partly Cloudy
5:00 AM 74 °F - 74 °F 100% 29.76 in 5 mi Calm Calm - -   Scattered Clouds
5:00 AM 75.2 °F - 73.4 °F 94% 29.74 in 5.0 mi Calm Calm - N/A   Partly Cloudy
5:30 AM 75.2 °F - 71.6 °F 89% 29.77 in 5.0 mi ENE 4.6 mph - N/A   Partly Cloudy
6:00 AM 75.2 °F - 71.6 °F 89% 29.77 in 5.6 mi ESE 3.5 mph - N/A   Partly Cloudy
6:30 AM 75.2 °F - 73.4 °F 94% 29.77 in 6.2 mi SE 3.5 mph - N/A   Partly Cloudy
6:32 AM 76 °F - 76 °F 100% 29.78 in 5 mi SE 2.3 mph - -   Scattered Clouds
7:00 AM 77.0 °F - 73.4 °F 89% 29.80 in 6.2 mi East 3.5 mph - N/A   Partly Cloudy
7:30 AM 80.6 °F 85.4 °F 73.4 °F 79% 29.80 in 5.6 mi East 3.5 mph - N/A   Partly Cloudy
8:00 AM 80 °F - 78 °F 93% 29.83 in 6 mi ESE 3.5 mph - -   Scattered Clouds
8:00 AM 84.2 °F 89.6 °F 71.6 °F 66% 29.83 in 5.6 mi ESE 3.5 mph - N/A   Partly Cloudy
8:30 AM 86.0 °F 93.4 °F 73.4 °F 66% 29.83 in 5.6 mi East 3.5 mph - N/A   Partly Cloudy
9:00 AM 87.8 °F 95.6 °F 73.4 °F 62% 29.83 in 5.6 mi ENE 4.6 mph - N/A   Partly Cloudy
9:30 AM 89.6 °F 98.2 °F 73.4 °F 59% 29.80 in 5.6 mi Variable 2.3 mph - N/A   Partly Cloudy
10:00 AM 91.4 °F 96.8 °F 69.8 °F 49% 29.80 in 5.6 mi SSE 3.5 mph - N/A   Partly Cloudy
10:30 AM 93.2 °F 100.5 °F 71.6 °F 49% 29.80 in 6.2 mi Variable 3.5 mph - N/A   Partly Cloudy
11:00 AM 94 °F - 77 °F 49% 29.79 in 6 mi ENE 3.5 mph - -   Mostly Cloudy
11:00 AM 93.2 °F 100.5 °F 71.6 °F 49% 29.77 in 6.2 mi Variable 3.5 mph - N/A   Partly Cloudy
11:30 AM 93.2 °F 100.5 °F 71.6 °F 49% 29.77 in 6.2 mi WNW 8.1 mph - N/A   Partly Cloudy
12:00 PM 93.2 °F 102.4 °F 73.4 °F 52% 29.77 in 6.2 mi WNW 9.2 mph - N/A   Partly Cloudy
12:30 PM 93.2 °F 105.0 °F 75.2 °F 56% 29.74 in 6.2 mi West 9.2 mph - N/A   Scattered Clouds
1:00 PM 91.4 °F 105.1 °F 77.0 °F 63% 29.74 in 6.2 mi West 12.7 mph - N/A   Scattered Clouds
1:30 PM 93.2 °F 110.2 °F 78.8 °F 63% 29.71 in 5.0 mi West 13.8 mph - N/A   Partly Cloudy
1:43 PM 93.2 °F 110.2 °F 78.8 °F 63% 29.71 in 5.0 mi West 15.0 mph - N/A Thunderstorm Thunderstorm
2:00 PM 93 °F - 80 °F 58% 29.71 in 4 mi West 15.0 mph - - Thunderstorm Thunderstorm
2:30 PM 89.6 °F 99.8 °F 75.2 °F 62% - 3.7 mi WSW 15.0 mph 27.6 mph N/A Thunderstorm Thunderstorm
2:57 PM 87.8 °F 102.5 °F 78.8 °F 75% - 3.7 mi NE 12.7 mph - N/A Rain , Thunderstorm Light Thunderstorms and Rain
3:00 PM 86.0 °F 99.3 °F 78.8 °F 79% - 3.7 mi NE 13.8 mph - N/A Rain , Thunderstorm Light Thunderstorms and Rain
3:30 PM 78.8 °F - 75.2 °F 89% 29.71 in 3.1 mi ESE 6.9 mph - N/A Rain , Thunderstorm Light Thunderstorms and Rain
4:00 PM 77.0 °F - 77.0 °F 100% 29.71 in 3.7 mi ENE 6.9 mph - N/A Rain , Thunderstorm Light Thunderstorms and Rain
4:17 PM 77.0 °F - 77.0 °F 100% 29.71 in 5.6 mi ENE 5.8 mph - N/A   Scattered Clouds
4:30 PM 77.0 °F - 77.0 °F 100% 29.71 in 6.2 mi NE 3.5 mph - N/A   Scattered Clouds
5:00 PM 79 °F - 79 °F 98% 29.75 in 6 mi NE 4.6 mph - - Thunderstorm Light Thunderstorm
5:00 PM 78.8 °F - 78.8 °F 100% 29.74 in 6.2 mi NE 4.6 mph - N/A   Partly Cloudy
5:30 PM 78.8 °F - 77.0 °F 94% 29.74 in 6.2 mi East 3.5 mph - N/A   Partly Cloudy
6:00 PM 78.8 °F - 77.0 °F 94% 29.77 in 6.2 mi Variable 2.3 mph - N/A   Partly Cloudy
6:30 PM 78.8 °F - 77.0 °F 94% 29.77 in 6.2 mi Variable 2.3 mph - N/A   Partly Cloudy
7:00 PM 78.8 °F - 77.0 °F 94% 29.77 in 6.2 mi Variable 1.2 mph - N/A   Partly Cloudy
7:30 PM 78.8 °F - 77.0 °F 94% 29.80 in 6.2 mi NE 1.2 mph - N/A   Partly Cloudy
8:00 PM 78 °F - 78 °F 100% 29.82 in 5 mi ENE 2.3 mph - -   Partly Cloudy
8:00 PM 78.8 °F - 78.8 °F 100% 29.80 in 5.0 mi ENE 2.3 mph - N/A   Partly Cloudy
8:30 PM 78.8 °F - 77.0 °F 94% 29.80 in 5.0 mi Variable 2.3 mph - N/A   Partly Cloudy
9:00 PM 78.8 °F - 77.0 °F 94% 29.83 in 5.0 mi Variable 1.2 mph - N/A   Partly Cloudy
9:30 PM 77.0 °F - 77.0 °F 100% 29.83 in 5.0 mi North 2.3 mph - N/A   Partly Cloudy
10:00 PM 77.0 °F - 77.0 °F 100% 29.83 in 5.0 mi ENE 2.3 mph - N/A   Partly Cloudy
10:30 PM 77.0 °F - 77.0 °F 100% 29.83 in 5.0 mi NE 3.5 mph - N/A   Partly Cloudy
11:00 PM 77 °F - 77 °F 100% 29.83 in 5 mi ESE 3.5 mph - -   Scattered Clouds
11:00 PM 77.0 °F - 77.0 °F 100% 29.83 in 5.0 mi Variable 2.3 mph - N/A   Partly Cloudy
11:30 PM 77.0 °F - 77.0 °F 100% 29.83 in 5.0 mi ENE 3.5 mph - N/A   Partly Cloudy